Location: Crescent
(42.8242°N, 73.7329°W)
Time: 20:34:17
(UTC+00:00)

SR - Pass Details

Date: 21 February 2026
Orbit: 573 x 848 km, 66.7° (Epoch: 6 March)

Event Time Altitude Azimuth Distance (km) Brightness Sun altitude
Rises 08:23:51 0° 204° (SSW) 2,765 - -36.8°
Reaches altitude 10° 08:26:02 10° 203° (SSW) 1,878 - -36.4°
Maximum altitude 08:30:12 74° 118° (ESE) 617 - -35.7°
Exits shadow 08:33:47 15° 35° (NE) 1,655 ? -35.1°
Drops below altitude 10° 08:34:36 10° 34° (NE) 1,974 ? -34.9°
Sets 08:36:56 0° 33° (NNE) 2,921 ? -34.5°
